Flag for Canada Weather past 2 weeks in Charlottetown, Pr.Edward I, Canada

Now
64 °F

Passing clouds.


Feels Like: 64 °F
Forecast: 63 / 78 °F
Wind: 7 mph from Southwest

Location: Charlottetown

Current Time: Jul 30, 2014 at 2:14:49 AM

Latest Report: Jul 30, 2014 at 1:00 AM


Visibility: 15 mi

Pressure: 29.96 "Hg

Humidity: 83%

Dew point: 59 °F

Location of CharlottetownLocation

Historic Weather in Charlottetown — Graph

°F

Charlottetown temperature yesterday

Maximum temperature yesterday: 81 °F (at 2:00 PM)
Minimum temperature yesterday: 68 °F (at 9:00 PM)
Average temperature yesterday: 73 °F

Past Weeks' High & Low Weather Summary

 TemperatureHumidityPressure
High84 °F (Jul 16, 3:00 PM)100% (Jul 15, 2:50 PM)30.28 "Hg (Jul 15, 2:50 PM)
Low54 °F (Jul 20, 5:00 AM)34% (Jul 21, 4:00 PM)29.67 "Hg (Jul 29, 4:00 AM)
Average70 °F78%29.93 "Hg
* Reported Jul 15 1:00 AM — Jul 30 1:00 AM, Charlottetown, Weather by CustomWeather, © 2014

Note: Actual official high and low records may vary slightly from our data, if they occured in-between our weather recording intervals... More about our weather records

Advertising

Charlottetown weather history for previous 24 hours

 ConditionsComfort  
Time TempWeatherWind HumidityBarometerVisibility
1:00 AM
Jul 30
64 °FPassing clouds.7 mph83%29.96 "Hg15 mi
12:00 AM66 °FPassing clouds.8 mph78%29.94 "Hg15 mi
11:00 PM
Jul 29
68 °FPassing clouds.9 mph73%29.93 "Hg15 mi
10:00 PM68 °FPassing clouds.9 mph73%29.91 "Hg15 mi
9:00 PM68 °FPartly sunny.9 mph78%29.90 "Hg15 mi
8:00 PM72 °FPartly sunny.12 mph73%29.87 "Hg15 mi
7:00 PM75 °FPartly sunny.16 mph69%29.84 "Hg15 mi
6:00 PM77 °FPartly sunny.18 mph65%29.81 "Hg15 mi
5:00 PM79 °FPartly sunny.22 mph61%29.79 "Hg15 mi
4:00 PM81 °FPartly sunny.20 mph58%29.77 "Hg15 mi
3:00 PM81 °FPartly sunny.23 mph58%29.76 "Hg15 mi
2:00 PM81 °FScattered clouds.22 mph62%29.75 "Hg15 mi
1:00 PM79 °FScattered clouds.25 mph65%29.75 "Hg15 mi
12:00 PM77 °FPartly sunny.23 mph74%29.75 "Hg15 mi
11:00 AM75 °FScattered clouds.23 mph78%29.75 "Hg15 mi
10:00 AM72 °FPartly sunny.16 mph83%29.74 "Hg15 mi
9:00 AM73 °FPartly sunny.20 mph83%29.73 "Hg15 mi
8:00 AM70 °FOvercast.16 mph88%29.72 "Hg12 mi
7:00 AM70 °FOvercast.15 mph88%29.70 "Hg12 mi
6:00 AM70 °FOvercast.18 mph83%29.69 "Hg12 mi
5:00 AM72 °FMostly cloudy.15 mph83%29.68 "Hg12 mi
4:00 AM72 °FLow clouds.20 mph88%29.67 "Hg12 mi
3:00 AM72 °FMostly cloudy.14 mph94%29.68 "Hg12 mi
2:00 AM72 °FMostly cloudy.13 mph94%29.69 "Hg10 mi
Weather by CustomWeather, © 2014

See weather overviewHow to use our weather pages